This is the latest recevied weather packets stored in our database for station/object OK1OBR-13. If no packets are shown the sender has not sent any weather packets the latest 1 day(s).
| Time | Temp. | Humidity | Pressure | Rain* | Wind** | Luminosity | Snow |
|---|---|---|---|---|---|---|---|
| 1778005502 | 15.56° C | 68% | 927.8 hPa | 0 mm | 0.45 m/s, 9° | - | - |
| 1778005441 | 15.56° C | 68% | 927.9 hPa | 0 mm | 0.45 m/s, 353° | - | - |
| 1778005381 | 15.56° C | 67% | 927.7 hPa | 0 mm | 0.45 m/s, 354° | - | - |
| 1778005322 | 15.56° C | 67% | 927.8 hPa | 0 mm | 0.45 m/s, 18° | - | - |
| 1778005262 | 15.56° C | 67% | 927.8 hPa | 0 mm | 0.45 m/s, 37° | - | - |
| 1778005201 | 16.11° C | 66% | 927.8 hPa | 0 mm | 0.45 m/s, 352° | - | - |
| 1778005141 | 16.11° C | 66% | 927.9 hPa | 0 mm | 0.45 m/s, 339° | - | - |
| 1778005082 | 16.11° C | 66% | 927.8 hPa | 0 mm | 0.89 m/s, 351° | - | - |
| 1778005021 | 16.11° C | 66% | 927.7 hPa | 0 mm | 0.89 m/s, 330° | - | - |
| 1778004961 | 16.11° C | 66% | 927.8 hPa | 0 mm | 1.34 m/s, 318° | - | - |
| 1778004901 | 16.11° C | 66% | 927.6 hPa | 0 mm | 1.34 m/s, 324° | - | - |
| 1778004841 | 16.11° C | 66% | 927.7 hPa | 0 mm | 1.34 m/s, 327° | - | - |
| 1778004781 | 16.11° C | 66% | 927.7 hPa | 0 mm | 0.89 m/s, 322° | - | - |
| 1778004721 | 16.11° C | 65% | 927.8 hPa | 0 mm | 1.34 m/s, 329° | - | - |
| 1778004662 | 16.11° C | 65% | 927.8 hPa | 0 mm | 1.34 m/s, 326° | - | - |
| 1778004602 | 16.11° C | 65% | 927.8 hPa | 0 mm | 1.34 m/s, 332° | - | - |
| 1778004541 | 16.11° C | 65% | 927.8 hPa | 0 mm | 1.34 m/s, 321° | - | - |
| 1778004481 | 16.11° C | 65% | 927.8 hPa | 0 mm | 0.89 m/s, 331° | - | - |
| 1778004421 | 16.11° C | 65% | 927.9 hPa | 0 mm | 0.89 m/s, 323° | - | - |
| 1778004361 | 16.11° C | 65% | 927.9 hPa | 0 mm | 0.89 m/s, 331° | - | - |
| 1778004301 | 16.11° C | 65% | 927.7 hPa | 0 mm | 0.89 m/s, 324° | - | - |
| 1778004241 | 16.11° C | 65% | 927.7 hPa | 0 mm | 0.89 m/s, 331° | - | - |
| 1778004182 | 16.11° C | 65% | 927.8 hPa | 0 mm | 1.34 m/s, 325° | - | - |
| 1778004061 | 16.11° C | 64% | 927.9 hPa | 0 mm | 0.89 m/s, 319° | - | - |
| 1778004002 | 16.11° C | 64% | 927.7 hPa | 0 mm | 0.89 m/s, 319° | - | - |
* Rain since midnight (hover to see other rain measurements)
** Current wind speed in m/s (hover to see current wind gust speed)